Location: Buch
(49.7331°N, 12.1098°E)
Time: 03:41:20
(UTC+00:00)

Cosmos 2082 Rocket - Pass Details

Date: 12 May 2021
Orbit: 834 x 853 km, 71.0° (Epoch: 23 June)

Event Time Altitude Azimuth Distance (km) Brightness Sun altitude
Rises 19:37:23 0° 333° (NNW) 3,393 6.8 -7.6°
Reaches altitude 10° 19:39:59 10° 341° (NNW) 2,456 5.7 -7.9°
Maximum altitude 19:45:17 41° 51° (NE) 1,202 3.0 -8.6°
Enters shadow 19:50:25 11° 120° (ESE) 2,395 3.9 -9.2°
